PAKSAT 1R

导读 | 豆包AI

PAKSAT-1R是巴基斯坦(PK)一颗地球同步轨道通信卫星,于北京时间2011年8月11日由中国长征三号乙运载火箭在西昌卫星发射中心发射升空,是中巴航天合作标志性项目。该卫星设计寿命15年,搭载30个转发器,覆盖南亚、中亚等区域,提供电视广播、宽带互联网、远程医疗教育等服务,满足巴基斯坦通信需求,改善偏远地区连接,被称为中巴“友谊之星”。

基本信息
目录编号:
37779
目录名称:
PAKSAT 1R
国际标识:
2011-042A
轨道中心:
EARTH
卫星名称:
PAKSAT 1R
卫星全名:
--
卫星状态:
在轨 (已飞行5377 天)
发射日期:
2011-08-11 UTC
国别 :
巴基斯坦 (PK)
星等 :
--
轨道信息
数据来源 国际轨道数据 AOE轨道数据
星历时间 2026-05-01T06:07:58+0800
14小时前
查看轨道信息
2026-05-01T06:00:00+0800
14小时前
查看轨道信息
半长轴 42165.906km 42166.102km
偏心率 0.000327 0.0003739
轨道倾角 0.567° 0.567°
近地点辐角 319.905° 320.460°
升交点赤经 84.910° 84.939°
平近点角 184.044° 181.464°
近地点 35773.98km 35772.199km
远地点 35801.558km 35803.731km
周期 1436.157分钟 1436.167分钟
每日圈数 1.002676 1.002669
详细信息
使用方式:
暂无
2D轨道图
3D轨道图
轨道高度分析图
轨道倾角分析图
轨道综合分析图
查看轨道综合分析图